"read_dt","SO2 (ppb)","flags","PMT voltage (V)","lamp voltage (V)","lamp intensity (Hz)","internal temp (C)","react chamber temp (C)","sample flow (l/min)","pres (mmHg)","SO2 bkg (ppb)","SO2 coefficient"
2015-07-26 00:00:00,1762E-3,5C000000,-0724,0823,12396,026.2,045.4,0.478,734.3,01.18,0.508
2015-07-26 00:01:00,1757E-3,5C000000,-0724,0823,12128,026.2,045.4,0.478,734.4,01.18,0.508
2015-07-26 00:02:00,1460E-3,5C000000,-0724,0822,12275,026.2,045.4,0.478,734.4,01.18,0.508
2015-07-26 00:03:00,1603E-3,5C000000,-0724,0822,12376,026.2,045.4,0.478,734.4,01.18,0.508
2015-07-26 00:04:00,1679E-3,5C000000,-0724,0823,12091,026.2,045.4,0.478,734.4,01.18,0.508
2015-07-26 00:05:00,1673E-3,5C000000,-0724,0822,12097,026.1,045.4,0.478,734.4,01.18,0.508
2015-07-26 00:06:00,1674E-3,5C000000,-0724,0822,12210,026.2,045.4,0.478,734.4,01.18,0.508
2015-07-26 00:07:00,1783E-3,5C000000,-0724,0822,12368,026.2,045.4,0.478,734.4,01.18,0.508
2015-07-26 00:08:00,1650E-3,5C000000,-0724,0822,12366,026.2,045.4,0.478,734.4,01.18,0.508
2015-07-26 00:09:00,1683E-3,5C000000,-0724,0823,12384,026.2,045.4,0.478,734.4,01.18,0.508
2015-07-26 00:10:00,1722E-3,5C000000,-0724,0823,12310,026.2,045.4,0.478,734.4,01.18,0.508
2015-07-26 00:11:00,1586E-3,5C000000,-0724,0822,12313,026.2,045.4,0.478,734.4,01.18,0.508
2015-07-26 00:12:00,1673E-3,5C000000,-0724,0822,12188,026.2,045.4,0.478,734.4,01.18,0.508
2015-07-26 00:13:00,1700E-3,5C000000,-0724,0823,12277,026.2,045.4,0.478,734.4,01.18,0.508
2015-07-26 00:14:00,1493E-3,5C000000,-0724,0823,12263,026.2,045.4,0.478,734.4,01.18,0.508
2015-07-26 00:15:00,1635E-3,5C000000,-0724,0822,12192,026.2,045.4,0.478,734.4,01.18,0.508
2015-07-26 00:16:00,1675E-3,5C000000,-0724,0822,12228,026.2,045.4,0.478,734.4,01.18,0.508
2015-07-26 00:17:00,1590E-3,5C000000,-0724,0822,12247,026.2,045.4,0.478,734.4,01.18,0.508
2015-07-26 00:18:00,1653E-3,5C000000,-0724,0822,12205,026.2,045.4,0.478,734.4,01.18,0.508
2015-07-26 00:19:00,1646E-3,5C000000,-0724,0822,12165,026.2,045.4,0.478,734.4,01.18,0.508
2015-07-26 00:20:00,1682E-3,5C000000,-0724,0822,12180,026.2,045.4,0.478,734.4,01.18,0.508
2015-07-26 00:21:00,1508E-3,5C000000,-0724,0822,12381,026.2,045.4,0.478,734.4,01.18,0.508
2015-07-26 00:22:00,1610E-3,5C000000,-0724,0823,12390,026.2,045.4,0.478,734.5,01.18,0.508
2015-07-26 00:23:00,1668E-3,5C000000,-0724,0822,12139,026.1,045.4,0.478,734.5,01.18,0.508
2015-07-26 00:24:00,1705E-3,5C000000,-0724,0822,12303,026.2,045.4,0.478,734.5,01.18,0.508
2015-07-26 00:25:00,1607E-3,5C000000,-0724,0822,12143,026.2,045.4,0.478,734.5,01.18,0.508
2015-07-26 00:26:00,1635E-3,5C000000,-0724,0823,12186,026.1,045.4,0.478,734.5,01.18,0.508
2015-07-26 00:27:00,1609E-3,5C000000,-0724,0822,12242,026.2,045.4,0.478,734.5,01.18,0.508
2015-07-26 00:28:00,1691E-3,5C000000,-0724,0822,12417,026.2,045.4,0.478,734.5,01.18,0.508
2015-07-26 00:29:00,1697E-3,5C000000,-0724,0821,12269,026.2,045.4,0.478,734.5,01.18,0.508
2015-07-26 00:30:00,1605E-3,5C000000,-0724,0822,12401,026.2,045.4,0.478,734.5,01.18,0.508
2015-07-26 00:31:00,1701E-3,5C000000,-0724,0822,12303,026.2,045.4,0.478,734.5,01.18,0.508
2015-07-26 00:32:00,1574E-3,5C000000,-0724,0823,12346,026.2,045.4,0.478,734.5,01.18,0.508
2015-07-26 00:33:00,1728E-3,5C000000,-0724,0822,12262,026.2,045.4,0.478,734.5,01.18,0.508
2015-07-26 00:34:00,1675E-3,5C000000,-0724,0823,12298,026.2,045.4,0.478,734.5,01.18,0.508
2015-07-26 00:35:00,1735E-3,5C000000,-0724,0823,12283,026.2,045.4,0.478,734.5,01.18,0.508
2015-07-26 00:36:00,1778E-3,5C000000,-0724,0822,12291,026.2,045.4,0.478,734.5,01.18,0.508
2015-07-26 00:37:00,1643E-3,5C000000,-0724,0822,12241,026.1,045.4,0.478,734.5,01.18,0.508
2015-07-26 00:38:00,1619E-3,5C000000,-0724,0822,12317,026.1,045.4,0.478,734.5,01.18,0.508
2015-07-26 00:39:00,1639E-3,5C000000,-0724,0823,12239,026.2,045.4,0.478,734.5,01.18,0.508
2015-07-26 00:40:00,1721E-3,5C000000,-0724,0823,12315,026.2,045.4,0.478,734.5,01.18,0.508
2015-07-26 00:41:00,1624E-3,5C000000,-0724,0822,12258,026.2,045.4,0.478,734.5,01.18,0.508
2015-07-26 00:42:00,1772E-3,5C000000,-0724,0823,12242,026.2,045.4,0.478,734.5,01.18,0.508
2015-07-26 00:43:00,1615E-3,5C000000,-0724,0822,12322,026.1,045.4,0.478,734.5,01.18,0.508
2015-07-26 00:44:00,1702E-3,5C000000,-0724,0822,12333,026.2,045.4,0.478,734.5,01.18,0.508
2015-07-26 00:45:00,1595E-3,5C000000,-0724,0823,12268,026.2,045.4,0.478,734.5,01.18,0.508
2015-07-26 00:46:00,1562E-3,5C000000,-0724,0822,12402,026.2,045.4,0.478,734.5,01.18,0.508
2015-07-26 00:47:00,1707E-3,5C000000,-0724,0823,12421,026.2,045.4,0.478,734.5,01.18,0.508
2015-07-26 00:48:00,1688E-3,5C000000,-0724,0823,12283,026.1,045.4,0.478,734.5,01.18,0.508
2015-07-26 00:49:00,1610E-3,5C000000,-0724,0822,12259,026.1,045.4,0.478,734.6,01.18,0.508
2015-07-26 00:50:00,1621E-3,5C000000,-0724,0821,12320,026.2,045.4,0.478,734.6,01.18,0.508
2015-07-26 00:51:00,1567E-3,5C000000,-0724,0822,12155,026.2,045.4,0.478,734.6,01.18,0.508
2015-07-26 00:52:00,1643E-3,5C000000,-0724,0822,12249,026.2,045.4,0.478,734.6,01.18,0.508
2015-07-26 00:53:00,1720E-3,5C000000,-0724,0823,12097,026.2,045.4,0.478,734.6,01.18,0.508
2015-07-26 00:54:00,1660E-3,5C000000,-0724,0822,12205,026.2,045.4,0.478,734.6,01.18,0.508
2015-07-26 00:55:00,1412E-3,5C000000,-0724,0822,12323,026.2,045.4,0.478,734.6,01.18,0.508
2015-07-26 00:56:00,1513E-3,5C000000,-0724,0823,12289,026.2,045.4,0.478,734.6,01.18,0.508
2015-07-26 00:57:00,1491E-3,5C000000,-0724,0823,12322,026.2,045.4,0.478,734.6,01.18,0.508
2015-07-26 00:58:00,1726E-3,5C000000,-0724,0822,12251,026.2,045.4,0.478,734.6,01.18,0.508
2015-07-26 00:59:00,1707E-3,5C000000,-0724,0822,12393,026.2,045.4,0.478,734.6,01.18,0.508
2015-07-26 01:00:00,1608E-3,5C000000,-0724,0822,12193,026.2,045.4,0.478,734.6,01.18,0.508
2015-07-26 01:01:00,1680E-3,5C000000,-0724,0823,12393,026.1,045.4,0.478,734.6,01.18,0.508
2015-07-26 01:02:00,1604E-3,5C000000,-0724,0823,12247,026.2,045.4,0.478,734.6,01.18,0.508
2015-07-26 01:03:00,1752E-3,5C000000,-0724,0823,12206,026.2,045.4,0.478,734.6,01.18,0.508
2015-07-26 01:04:00,1734E-3,5C000000,-0724,0822,12431,026.2,045.4,0.478,734.6,01.18,0.508
2015-07-26 01:05:00,1600E-3,5C000000,-0724,0822,12312,026.2,045.4,0.478,734.6,01.18,0.508
2015-07-26 01:06:00,1620E-3,5C000000,-0724,0823,12175,026.2,045.4,0.478,734.7,01.18,0.508
2015-07-26 01:07:00,1795E-3,5C000000,-0724,0821,12216,026.2,045.4,0.478,734.7,01.18,0.508
2015-07-26 01:08:00,1581E-3,5C000000,-0724,0821,12371,026.2,045.4,0.478,734.7,01.18,0.508
2015-07-26 01:09:00,1741E-3,5C000000,-0724,0823,12408,026.2,045.4,0.478,734.6,01.18,0.508
2015-07-26 01:10:00,1742E-3,5C000000,-0724,0822,12117,026.2,045.4,0.478,734.7,01.18,0.508
2015-07-26 01:11:00,1705E-3,5C000000,-0724,0822,12268,026.2,045.4,0.478,734.7,01.18,0.508
2015-07-26 01:12:00,1708E-3,5C000000,-0724,0822,12263,026.2,045.4,0.478,734.6,01.18,0.508
2015-07-26 01:13:00,1659E-3,5C000000,-0724,0822,12217,026.2,045.4,0.478,734.7,01.18,0.508
2015-07-26 01:14:00,1669E-3,5C000000,-0724,0822,12168,026.2,045.4,0.478,734.7,01.18,0.508
2015-07-26 01:15:00,1710E-3,5C000000,-0724,0822,12372,026.2,045.4,0.478,734.6,01.18,0.508
2015-07-26 01:16:00,1646E-3,5C000000,-0724,0823,12202,026.2,045.4,0.478,734.7,01.18,0.508
2015-07-26 01:17:00,1635E-3,5C000000,-0724,0823,12152,026.2,045.4,0.478,734.7,01.18,0.508
2015-07-26 01:18:00,1617E-3,5C000000,-0724,0822,12264,026.2,045.4,0.478,734.6,01.18,0.508
2015-07-26 01:19:00,1719E-3,5C000000,-0724,0822,12126,026.2,045.4,0.478,734.7,01.18,0.508
2015-07-26 01:20:00,1645E-3,5C000000,-0724,0822,12218,026.2,045.4,0.478,734.7,01.18,0.508
2015-07-26 01:21:00,1579E-3,5C000000,-0724,0822,12309,026.2,045.4,0.478,734.7,01.18,0.508
2015-07-26 01:22:00,1772E-3,5C000000,-0724,0822,12207,026.2,045.4,0.478,734.7,01.18,0.508
2015-07-26 01:23:00,1698E-3,5C000000,-0724,0821,12311,026.2,045.4,0.478,734.7,01.18,0.508
2015-07-26 01:24:00,1657E-3,5C000000,-0724,0822,12353,026.2,045.4,0.478,734.7,01.18,0.508
2015-07-26 01:25:00,1799E-3,5C000000,-0724,0822,12283,026.2,045.4,0.478,734.7,01.18,0.508
2015-07-26 01:26:00,1792E-3,5C000000,-0724,0822,12280,026.2,045.4,0.478,734.7,01.18,0.508
2015-07-26 01:27:00,1728E-3,5C000000,-0724,0822,12262,026.2,045.4,0.478,734.7,01.18,0.508
2015-07-26 01:28:00,1689E-3,5C000000,-0724,0822,12336,026.2,045.4,0.478,734.7,01.18,0.508
2015-07-26 01:29:00,1635E-3,5C000000,-0724,0823,12305,026.2,045.4,0.478,734.7,01.18,0.508
2015-07-26 01:30:00,1676E-3,5C000000,-0724,0822,12304,026.2,045.4,0.478,734.7,01.18,0.508
2015-07-26 01:31:00,1756E-3,5C000000,-0724,0822,12298,026.2,045.4,0.478,734.7,01.18,0.508
2015-07-26 01:32:00,1619E-3,5C000000,-0724,0822,12397,026.2,045.4,0.478,734.7,01.18,0.508
2015-07-26 01:33:00,1674E-3,5C000000,-0724,0822,12281,026.2,045.4,0.478,734.8,01.18,0.508
2015-07-26 01:34:00,1726E-3,5C000000,-0724,0822,12176,026.2,045.4,0.478,734.7,01.18,0.508
2015-07-26 01:35:00,1674E-3,5C000000,-0724,0822,12236,026.2,045.4,0.478,734.7,01.18,0.508
2015-07-26 01:36:00,1716E-3,5C000000,-0724,0822,12326,026.2,045.4,0.478,734.7,01.18,0.508
2015-07-26 01:37:00,1609E-3,5C000000,-0724,0822,12326,026.2,045.4,0.478,734.8,01.18,0.508
2015-07-26 01:38:00,1769E-3,5C000000,-0724,0823,12141,026.2,045.4,0.478,734.7,01.18,0.508
2015-07-26 01:39:00,1718E-3,5C000000,-0724,0821,12232,026.2,045.4,0.478,734.8,01.18,0.508
2015-07-26 01:40:00,1585E-3,5C000000,-0724,0822,12236,026.2,045.4,0.478,734.8,01.18,0.508
2015-07-26 01:41:00,1641E-3,5C000000,-0724,0822,12377,026.2,045.4,0.478,734.7,01.18,0.508
2015-07-26 01:42:00,1715E-3,5C000000,-0724,0822,12297,026.2,045.4,0.478,734.7,01.18,0.508
2015-07-26 01:43:00,1771E-3,5C000000,-0724,0823,12189,026.2,045.4,0.478,734.7,01.18,0.508
2015-07-26 01:44:00,1653E-3,5C000000,-0724,0822,12116,026.2,045.4,0.478,734.7,01.18,0.508
2015-07-26 01:45:00,1679E-3,5C000000,-0724,0822,12302,026.2,045.4,0.478,734.7,01.18,0.508
2015-07-26 01:46:00,1808E-3,5C000000,-0724,0823,12242,026.2,045.4,0.478,734.7,01.18,0.508
2015-07-26 01:47:00,1764E-3,5C000000,-0724,0822,12304,026.2,045.4,0.478,734.7,01.18,0.508
2015-07-26 01:48:00,1634E-3,5C000000,-0724,0822,12305,026.2,045.4,0.478,734.7,01.18,0.508
2015-07-26 01:49:00,1638E-3,5C000000,-0724,0822,12149,026.2,045.4,0.478,734.7,01.18,0.508
2015-07-26 01:50:00,1687E-3,5C000000,-0724,0821,12341,026.2,045.4,0.478,734.7,01.18,0.508
2015-07-26 01:51:00,1739E-3,5C000000,-0724,0823,12188,026.2,045.4,0.478,734.7,01.18,0.508
2015-07-26 01:52:00,1614E-3,5C000000,-0724,0822,12252,026.2,045.4,0.478,734.7,01.18,0.508
2015-07-26 01:53:00,1614E-3,5C000000,-0724,0822,12234,026.2,045.4,0.478,734.7,01.18,0.508
2015-07-26 01:54:00,1603E-3,5C000000,-0724,0821,12427,026.2,045.4,0.478,734.7,01.18,0.508
2015-07-26 01:55:00,1604E-3,5C000000,-0724,0822,12270,026.2,045.4,0.478,734.7,01.18,0.508
2015-07-26 01:56:00,1728E-3,5C000000,-0724,0822,12351,026.2,045.4,0.478,734.8,01.18,0.508
2015-07-26 01:57:00,1646E-3,5C000000,-0724,0823,12128,026.2,045.4,0.478,734.8,01.18,0.508
2015-07-26 01:58:00,1593E-3,5C000000,-0724,0822,12213,026.2,045.4,0.478,734.8,01.18,0.508
2015-07-26 01:59:00,1553E-3,5C000000,-0724,0822,12262,026.2,045.4,0.478,734.8,01.18,0.508
2015-07-26 02:00:00,1711E-3,5C000000,-0724,0822,12254,026.2,045.4,0.478,734.8,01.18,0.508
2015-07-26 02:01:00,1656E-3,5C000000,-0724,0822,12293,026.2,045.4,0.478,734.8,01.18,0.508
2015-07-26 02:02:00,1642E-3,5C000000,-0724,0822,12208,026.2,045.4,0.478,734.8,01.18,0.508
2015-07-26 02:03:00,1583E-3,5C000000,-0724,0822,12400,026.2,045.4,0.478,734.8,01.18,0.508
2015-07-26 02:04:00,1762E-3,5C000000,-0724,0822,12273,026.2,045.4,0.478,734.8,01.18,0.508
2015-07-26 02:05:00,1649E-3,5C000000,-0724,0821,12232,026.2,045.4,0.478,734.9,01.18,0.508
2015-07-26 02:06:00,1523E-3,5C000000,-0724,0821,12265,026.2,045.4,0.478,734.9,01.18,0.508
2015-07-26 02:07:00,1564E-3,5C000000,-0724,0822,12282,026.2,045.4,0.478,734.9,01.18,0.508
2015-07-26 02:08:00,1649E-3,5C000000,-0724,0821,12353,026.2,045.4,0.478,734.9,01.18,0.508
2015-07-26 02:09:00,1764E-3,5C000000,-0724,0822,12133,026.2,045.4,0.478,734.9,01.18,0.508
2015-07-26 02:10:00,1637E-3,5C000000,-0724,0823,12272,026.2,045.4,0.478,734.9,01.18,0.508
2015-07-26 02:11:00,1701E-3,5C000000,-0724,0822,12373,026.2,045.4,0.478,734.9,01.18,0.508
2015-07-26 02:12:00,1732E-3,5C000000,-0724,0822,12266,026.2,045.4,0.478,734.9,01.18,0.508
2015-07-26 02:13:00,1549E-3,5C000000,-0724,0822,12154,026.2,045.4,0.478,734.9,01.18,0.508
2015-07-26 02:14:00,1567E-3,5C000000,-0724,0822,12290,026.2,045.4,0.478,734.9,01.18,0.508
2015-07-26 02:15:00,1639E-3,5C000000,-0724,0823,12251,026.2,045.4,0.478,734.9,01.18,0.508
2015-07-26 02:16:00,1825E-3,5C000000,-0724,0822,12283,026.2,045.4,0.478,734.9,01.18,0.508
2015-07-26 02:17:00,1648E-3,5C000000,-0724,0823,12299,026.2,045.4,0.478,734.9,01.18,0.508
2015-07-26 02:18:00,1638E-3,5C000000,-0724,0823,12147,026.2,045.4,0.478,734.9,01.18,0.508
2015-07-26 02:19:00,1650E-3,5C000000,-0724,0822,12313,026.2,045.4,0.478,734.9,01.18,0.508
2015-07-26 02:20:00,1606E-3,5C000000,-0724,0822,12334,026.2,045.4,0.478,734.9,01.18,0.508
2015-07-26 02:21:00,1682E-3,5C000000,-0724,0823,12162,026.2,045.4,0.478,734.9,01.18,0.508
2015-07-26 02:22:00,1546E-3,5C000000,-0724,0822,12380,026.2,045.4,0.478,734.9,01.18,0.508
2015-07-26 02:23:00,1696E-3,5C000000,-0724,0821,12385,026.2,045.4,0.478,734.9,01.18,0.508
2015-07-26 02:24:00,1626E-3,5C000000,-0724,0822,12228,026.2,045.4,0.478,734.9,01.18,0.508
2015-07-26 02:25:00,1598E-3,5C000000,-0724,0821,12332,026.2,045.4,0.478,734.9,01.18,0.508
2015-07-26 02:26:00,1626E-3,5C000000,-0724,0822,12247,026.2,045.4,0.478,734.9,01.18,0.508
2015-07-26 02:27:00,1692E-3,5C000000,-0724,0822,12236,026.2,045.4,0.478,734.9,01.18,0.508
2015-07-26 02:28:00,1706E-3,5C000000,-0724,0822,12452,026.2,045.4,0.478,734.9,01.18,0.508
2015-07-26 02:29:00,1648E-3,5C000000,-0724,0822,12280,026.2,045.4,0.478,734.9,01.18,0.508
2015-07-26 02:30:00,1635E-3,5C000000,-0724,0822,12200,026.2,045.4,0.478,734.9,01.18,0.508
2015-07-26 02:31:00,1611E-3,5C000000,-0724,0822,12167,026.2,045.4,0.478,734.9,01.18,0.508
2015-07-26 02:32:00,1690E-3,5C000000,-0724,0822,12194,026.2,045.4,0.478,734.9,01.18,0.508
2015-07-26 02:33:00,1762E-3,5C000000,-0724,0823,12322,026.2,045.4,0.478,734.8,01.18,0.508
2015-07-26 02:34:00,1617E-3,5C000000,-0724,0821,12094,026.2,045.4,0.478,734.9,01.18,0.508
2015-07-26 02:35:00,1613E-3,5C000000,-0724,0822,12229,026.2,045.4,0.478,734.9,01.18,0.508
2015-07-26 02:36:00,1592E-3,5C000000,-0724,0822,12277,026.2,045.4,0.478,734.9,01.18,0.508
2015-07-26 02:37:00,1774E-3,5C000000,-0724,0823,12401,026.3,045.4,0.478,734.9,01.18,0.508
2015-07-26 02:38:00,1605E-3,5C000000,-0724,0822,12338,026.3,045.4,0.478,734.9,01.18,0.508
2015-07-26 02:39:00,1695E-3,5C000000,-0724,0822,12297,026.3,045.4,0.478,734.8,01.18,0.508
2015-07-26 02:40:00,1580E-3,5C000000,-0724,0822,12268,026.3,045.4,0.478,734.9,01.18,0.508
2015-07-26 02:41:00,1577E-3,5C000000,-0724,0821,12301,026.2,045.4,0.478,734.9,01.18,0.508
2015-07-26 02:42:00,1681E-3,5C000000,-0724,0821,12210,026.2,045.4,0.478,734.9,01.18,0.508
2015-07-26 02:43:00,1607E-3,5C000000,-0724,0822,12211,026.2,045.4,0.478,734.9,01.18,0.508
2015-07-26 02:44:00,1628E-3,5C000000,-0724,0821,12297,026.2,045.4,0.478,734.8,01.18,0.508
2015-07-26 02:45:00,1690E-3,5C000000,-0724,0823,12370,026.3,045.4,0.478,734.9,01.18,0.508
2015-07-26 02:46:00,1697E-3,5C000000,-0724,0821,12306,026.2,045.4,0.478,734.9,01.18,0.508
2015-07-26 02:47:00,1604E-3,5C000000,-0724,0822,12269,026.2,045.4,0.478,734.8,01.18,0.508
2015-07-26 02:48:00,1662E-3,5C000000,-0724,0822,12264,026.3,045.4,0.478,734.8,01.18,0.508
2015-07-26 02:49:00,1623E-3,5C000000,-0724,0821,12238,026.2,045.4,0.478,734.8,01.18,0.508
2015-07-26 02:50:00,1645E-3,5C000000,-0724,0822,12407,026.2,045.4,0.478,734.9,01.18,0.508
2015-07-26 02:51:00,1624E-3,5C000000,-0724,0822,12115,026.3,045.4,0.478,734.9,01.18,0.508
2015-07-26 02:52:00,1505E-3,5C000000,-0724,0822,12413,026.3,045.4,0.478,734.9,01.18,0.508
2015-07-26 02:53:00,1654E-3,5C000000,-0724,0822,12090,026.2,045.4,0.478,734.9,01.18,0.508
2015-07-26 02:54:00,1597E-3,5C000000,-0724,0822,12270,026.2,045.4,0.478,734.9,01.18,0.508
2015-07-26 02:55:00,1519E-3,5C000000,-0724,0823,12339,026.2,045.4,0.478,734.9,01.18,0.508
2015-07-26 02:56:00,1620E-3,5C000000,-0724,0823,12360,026.2,045.4,0.478,734.9,01.18,0.508
2015-07-26 02:57:00,1501E-3,5C000000,-0724,0822,12186,026.2,045.4,0.478,734.9,01.18,0.508
2015-07-26 02:58:00,1645E-3,5C000000,-0724,0822,12305,026.2,045.4,0.478,734.8,01.18,0.508
2015-07-26 02:59:00,1840E-3,5C000000,-0724,0821,12407,026.2,045.4,0.478,734.9,01.18,0.508
2015-07-26 03:00:00,1562E-3,5C000000,-0724,0823,12293,026.2,045.4,0.478,734.9,01.18,0.508
2015-07-26 03:01:00,1570E-3,5C000000,-0724,0822,12210,026.3,045.4,0.478,734.9,01.18,0.508
2015-07-26 03:02:00,1624E-3,5C000000,-0724,0822,12225,026.2,045.4,0.478,734.8,01.18,0.508
2015-07-26 03:03:00,1715E-3,5C000000,-0724,0822,12218,026.2,045.4,0.478,734.8,01.18,0.508
2015-07-26 03:04:00,1607E-3,5C000000,-0724,0823,12317,026.2,045.4,0.478,734.9,01.18,0.508
2015-07-26 03:05:00,1784E-3,5C000000,-0724,0822,12310,026.3,045.4,0.478,734.9,01.18,0.508
2015-07-26 03:06:00,1589E-3,5C000000,-0724,0822,12532,026.2,045.4,0.478,734.9,01.18,0.508
2015-07-26 03:07:00,1683E-3,5C000000,-0724,0822,12229,026.2,045.4,0.478,734.8,01.18,0.508
2015-07-26 03:08:00,1557E-3,5C000000,-0724,0822,12074,026.2,045.4,0.478,734.8,01.18,0.508
2015-07-26 03:09:00,1588E-3,5C000000,-0724,0822,12371,026.2,045.4,0.478,734.9,01.18,0.508
2015-07-26 03:10:00,1735E-3,5C000000,-0724,0822,12417,026.2,045.4,0.478,734.8,01.18,0.508
2015-07-26 03:11:00,1587E-3,5C000000,-0724,0822,12312,026.2,045.4,0.478,734.9,01.18,0.508
2015-07-26 03:12:00,1680E-3,5C000000,-0724,0821,12272,026.3,045.4,0.478,734.9,01.18,0.508
2015-07-26 03:13:00,1567E-3,5C000000,-0724,0822,12227,026.2,045.4,0.478,734.9,01.18,0.508
2015-07-26 03:14:00,1576E-3,5C000000,-0724,0821,12374,026.3,045.4,0.478,734.9,01.18,0.508
2015-07-26 03:15:00,1609E-3,5C000000,-0724,0822,12231,026.3,045.4,0.478,734.9,01.18,0.508
2015-07-26 03:16:00,1615E-3,5C000000,-0724,0822,12193,026.3,045.4,0.478,734.9,01.18,0.508
2015-07-26 03:17:00,1622E-3,5C000000,-0724,0822,12246,026.3,045.4,0.478,734.9,01.18,0.508
2015-07-26 03:18:00,1719E-3,5C000000,-0724,0822,12304,026.2,045.4,0.478,734.9,01.18,0.508
2015-07-26 03:19:00,1638E-3,5C000000,-0724,0823,12216,026.3,045.4,0.478,734.9,01.18,0.508
2015-07-26 03:20:00,1713E-3,5C000000,-0724,0823,12347,026.2,045.4,0.478,734.9,01.18,0.508
2015-07-26 03:21:00,1622E-3,5C000000,-0724,0822,12257,026.2,045.4,0.478,734.9,01.18,0.508
2015-07-26 03:22:00,1626E-3,5C000000,-0724,0822,12451,026.2,045.4,0.478,734.9,01.18,0.508
2015-07-26 03:23:00,1676E-3,5C000000,-0724,0823,12320,026.3,045.4,0.478,734.9,01.18,0.508
2015-07-26 03:24:00,1650E-3,5C000000,-0724,0822,12167,026.2,045.4,0.478,734.9,01.18,0.508
2015-07-26 03:25:00,1494E-3,5C000000,-0724,0821,12212,026.3,045.4,0.478,734.9,01.18,0.508
2015-07-26 03:26:00,1598E-3,5C000000,-0724,0822,12268,026.2,045.4,0.478,734.9,01.18,0.508
2015-07-26 03:27:00,1708E-3,5C000000,-0724,0822,12356,026.3,045.4,0.478,735.0,01.18,0.508
2015-07-26 03:28:00,1662E-3,5C000000,-0724,0823,12281,026.3,045.4,0.478,735.0,01.18,0.508
2015-07-26 03:29:00,1624E-3,5C000000,-0724,0822,12238,026.3,045.4,0.478,735.0,01.18,0.508
2015-07-26 03:30:00,1717E-3,5C000000,-0724,0822,12204,026.3,045.4,0.478,735.0,01.18,0.508
2015-07-26 03:31:00,1630E-3,5C000000,-0724,0823,12476,026.2,045.4,0.478,735.0,01.18,0.508
2015-07-26 03:32:00,1646E-3,5C000000,-0724,0822,12276,026.3,045.4,0.478,735.0,01.18,0.508
2015-07-26 03:33:00,1672E-3,5C000000,-0724,0821,12367,026.3,045.4,0.478,735.1,01.18,0.508
2015-07-26 03:34:00,1598E-3,5C000000,-0724,0822,12222,026.3,045.4,0.478,735.1,01.18,0.508
2015-07-26 03:35:00,1523E-3,5C000000,-0724,0822,12355,026.3,045.4,0.478,735.1,01.18,0.508
2015-07-26 03:36:00,1672E-3,5C000000,-0724,0822,12205,026.2,045.4,0.478,735.1,01.18,0.508
2015-07-26 03:37:00,1642E-3,5C000000,-0724,0821,12314,026.3,045.4,0.478,735.1,01.18,0.508
2015-07-26 03:38:00,1568E-3,5C000000,-0724,0823,12173,026.3,045.4,0.478,735.1,01.18,0.508
2015-07-26 03:39:00,1623E-3,5C000000,-0724,0822,12183,026.3,045.4,0.478,735.1,01.18,0.508
2015-07-26 03:40:00,1789E-3,5C000000,-0724,0822,12267,026.3,045.4,0.478,735.0,01.18,0.508
2015-07-26 03:41:00,1484E-3,5C000000,-0724,0822,12145,026.3,045.4,0.478,735.1,01.18,0.508
2015-07-26 03:42:00,1792E-3,5C000000,-0724,0822,12460,026.3,045.4,0.478,735.1,01.18,0.508
2015-07-26 03:43:00,1642E-3,5C000000,-0724,0822,12401,026.3,045.4,0.478,735.0,01.18,0.508
2015-07-26 03:44:00,1601E-3,5C000000,-0724,0823,12411,026.3,045.4,0.478,735.0,01.18,0.508
2015-07-26 03:45:00,1639E-3,5C000000,-0724,0822,12236,026.3,045.4,0.478,735.1,01.18,0.508
2015-07-26 03:46:00,1662E-3,5C000000,-0724,0822,12216,026.3,045.4,0.478,735.1,01.18,0.508
2015-07-26 03:47:00,1617E-3,5C000000,-0724,0822,12354,026.3,045.4,0.478,735.1,01.18,0.508
2015-07-26 03:48:00,1717E-3,5C000000,-0724,0822,12182,026.3,045.4,0.478,735.1,01.18,0.508
2015-07-26 03:49:00,1747E-3,5C000000,-0724,0822,12227,026.3,045.4,0.478,735.1,01.18,0.508
2015-07-26 03:50:00,1658E-3,5C000000,-0724,0822,12234,026.3,045.4,0.478,735.1,01.18,0.508
2015-07-26 03:51:00,1689E-3,5C000000,-0724,0823,12244,026.3,045.4,0.478,735.1,01.18,0.508
2015-07-26 03:52:00,1598E-3,5C000000,-0724,0822,12231,026.3,045.4,0.478,735.1,01.18,0.508
2015-07-26 03:53:00,1606E-3,5C000000,-0724,0822,12030,026.3,045.4,0.478,735.1,01.18,0.508
2015-07-26 03:54:00,1682E-3,5C000000,-0724,0822,12264,026.3,045.4,0.478,735.1,01.18,0.508
2015-07-26 03:55:00,1645E-3,5C000000,-0724,0822,12238,026.3,045.4,0.478,735.1,01.18,0.508
2015-07-26 03:56:00,1712E-3,5C000000,-0724,0822,12304,026.3,045.4,0.478,735.1,01.18,0.508
2015-07-26 03:57:00,1811E-3,5C000000,-0724,0822,12252,026.3,045.4,0.478,735.1,01.18,0.508
2015-07-26 03:58:00,1662E-3,5C000000,-0724,0822,12208,026.3,045.4,0.478,735.1,01.18,0.508
2015-07-26 03:59:00,1612E-3,5C000000,-0724,0822,12234,026.3,045.4,0.478,735.1,01.18,0.508
2015-07-26 04:00:00,1674E-3,5C000000,-0724,0823,12298,026.3,045.4,0.478,735.1,01.18,0.508
2015-07-26 04:01:00,1558E-3,5C000000,-0724,0823,12333,026.3,045.4,0.478,735.1,01.18,0.508
2015-07-26 04:02:00,1723E-3,5C000000,-0724,0822,12285,026.3,045.4,0.478,735.1,01.18,0.508
2015-07-26 04:03:00,1743E-3,5C000000,-0724,0822,12366,026.3,045.4,0.478,735.1,01.18,0.508
2015-07-26 04:04:00,1658E-3,5C000000,-0724,0822,12229,026.2,045.4,0.478,735.1,01.18,0.508
2015-07-26 04:05:00,1667E-3,5C000000,-0724,0822,12261,026.3,045.4,0.478,735.1,01.18,0.508
2015-07-26 04:06:00,1704E-3,5C000000,-0724,0822,12186,026.3,045.4,0.478,735.1,01.18,0.508
2015-07-26 04:07:00,1665E-3,5C000000,-0724,0822,12448,026.3,045.4,0.478,735.1,01.18,0.508
2015-07-26 04:08:00,1698E-3,5C000000,-0724,0822,12136,026.2,045.4,0.478,735.2,01.18,0.508
2015-07-26 04:09:00,1592E-3,5C000000,-0724,0822,12370,026.3,045.4,0.478,735.2,01.18,0.508
2015-07-26 04:10:00,1692E-3,5C000000,-0724,0822,12197,026.3,045.4,0.478,735.2,01.18,0.508
2015-07-26 04:11:00,1754E-3,5C000000,-0724,0822,12299,026.3,045.4,0.478,735.2,01.18,0.508
2015-07-26 04:12:00,1628E-3,5C000000,-0724,0822,12160,026.3,045.4,0.478,735.2,01.18,0.508
2015-07-26 04:13:00,1644E-3,5C000000,-0724,0822,12262,026.3,045.4,0.478,735.2,01.18,0.508
2015-07-26 04:14:00,1599E-3,5C000000,-0724,0822,12191,026.3,045.4,0.478,735.2,01.18,0.508
2015-07-26 04:15:00,1699E-3,5C000000,-0724,0821,12340,026.3,045.4,0.478,735.2,01.18,0.508
2015-07-26 04:16:00,1644E-3,5C000000,-0724,0822,12266,026.3,045.4,0.478,735.2,01.18,0.508
2015-07-26 04:17:00,1483E-3,5C000000,-0724,0822,12222,026.3,045.4,0.478,735.2,01.18,0.508
2015-07-26 04:18:00,1607E-3,5C000000,-0724,0822,12349,026.3,045.4,0.478,735.2,01.18,0.508
2015-07-26 04:19:00,1643E-3,5C000000,-0724,0823,12395,026.3,045.4,0.478,735.2,01.18,0.508
2015-07-26 04:20:00,1636E-3,5C000000,-0724,0822,12256,026.3,045.4,0.478,735.2,01.18,0.508